Weather History for KPMP - July, 2013

Change the Weather History Date:

Thursday, July 4, 2013

  Actual Average (KFLL) Record (KFLL)
Temperature  
Mean Temperature 80 °F 84 °F  
Max Temperature 89 °F 90 °F 97 °F (2009)
Min Temperature 73 °F 78 °F 67 °F (1936)
Degree Days  
Heating Degree Days 0 0  
Month to date heating degree days 0  
Since 1 June heating degree days 0  
Since 1 July heating degree days 0  
Cooling Degree Days 16 19  
Month to date cooling degree days 76  
Year to date cooling degree days 2037  
Since 1 June cooling degree days 619  
Growing Degree Days 30 (Base 50)    
Moisture  
Dew Point 75 °F    
Average Humidity 81    
Maximum Humidity 100    
Minimum Humidity 67    
Precipitation  
Precipitation 0.20 in 0.22 in 2.51 in (2010)
Month to date precipitation 0.93  
Year to date precipitation 28.58  
Snow  
Snow 0.00 in - - ()
Month to date snowfall  
Since 1 June snowfall  
Since 1 July snowfall  
Snow Depth -    
Sea Level Pressure  
Sea Level Pressure 30.12 in    
Wind  
Wind Speed 13 mph (SE)    
Max Wind Speed 18 mph    
Max Gust Speed 31 mph    
Visibility 9 miles    
Events Rain , Thunderstorm    
T = Trace of Precipitation, MM = Missing Value Source: NWS Daily Summary

Daily Weather History Graph

Daily Weather History Graph

Search for Another Location

Airport or City:

Trip Planner

Search our weather history database for the weather conditions in past years. The results will help you decide how hot, cold, wet, or windy it might be!

Date:

Astronomy

Jul. 04, 2013 Rise Set
Actual Time 6:32 AM EDT 8:16 PM EDT
Civil Twilight 6:06 AM EDT 8:42 PM EDT
Nautical Twilight 5:35 AM EDT 9:14 PM EDT
Astronomical Twilight 5:02 AM EDT 9:47 PM EDT
Moon 3:41 AM EDT (7/4) 5:25 PM EDT (7/4)
Length of Visible Light 14h 36m
Length of Day
13h 44m
Waning Crescent, 11% of the Moon is Illuminated
Jul 4
Waning Crescent
Jul 8
New
Jul 15
First Quarter
Jul 22
Full
Jul 29
Last Quarter

Hourly Weather History & Observations

Time (EDT) Temp. Heat Index Dew Point Humidity Pressure Visibility Wind Dir Wind Speed Gust Speed Precip Events Conditions
12:53 AM 82.0 °F 89.4 °F 75.9 °F 82% 30.13 in 10.0 mi SE 12.7 mph - N/A   Partly Cloudy
1:53 AM 82.0 °F 89.4 °F 75.9 °F 82% 30.12 in 10.0 mi ESE 13.8 mph - N/A   Partly Cloudy
2:53 AM 81.0 °F 87.3 °F 75.9 °F 85% 30.10 in 10.0 mi ESE 10.4 mph - N/A   Scattered Clouds
3:53 AM 81.0 °F 87.3 °F 75.9 °F 85% 30.09 in 10.0 mi ESE 12.7 mph - N/A   Partly Cloudy
4:53 AM 81.0 °F 87.3 °F 75.9 °F 85% 30.09 in 10.0 mi ESE 11.5 mph - N/A   Partly Cloudy
5:53 AM 81.0 °F 86.7 °F 75.0 °F 82% 30.08 in 10.0 mi ESE 13.8 mph - N/A   Clear
6:53 AM 81.0 °F 87.3 °F 75.9 °F 85% 30.10 in 10.0 mi SE 16.1 mph - N/A   Clear
7:53 AM 82.0 °F 88.6 °F 75.0 °F 79% 30.11 in 10.0 mi ESE 15.0 mph 25.3 mph N/A   Partly Cloudy
8:53 AM 84.0 °F 92.6 °F 75.9 °F 76% 30.13 in 10.0 mi ESE 16.1 mph 25.3 mph N/A   Clear
9:53 AM 84.9 °F 93.3 °F 75.0 °F 72% 30.14 in 10.0 mi SE 18.4 mph 25.3 mph N/A   Clear
10:53 AM 86.0 °F 95.1 °F 75.0 °F 70% 30.15 in 10.0 mi SE 12.7 mph - N/A   Scattered Clouds
11:53 AM 87.1 °F 96.3 °F 75.0 °F 67% 30.15 in 10.0 mi SE 17.3 mph 24.2 mph N/A   Scattered Clouds
12:53 PM 87.1 °F 97.3 °F 75.9 °F 69% 30.14 in 10.0 mi SE 15.0 mph 24.2 mph N/A   Scattered Clouds
1:53 PM 88.0 °F 98.5 °F 75.9 °F 67% 30.14 in 10.0 mi SE 13.8 mph 23.0 mph N/A   Mostly Cloudy
2:53 PM 86.0 °F 95.1 °F 75.0 °F 70% 30.12 in 10.0 mi ESE 16.1 mph 24.2 mph N/A   Mostly Cloudy
3:53 PM 84.9 °F 94.1 °F 75.9 °F 74% 30.11 in 10.0 mi ESE 15.0 mph - N/A   Scattered Clouds
4:53 PM 86.0 °F 95.1 °F 75.0 °F 70% 30.09 in 10.0 mi ESE 15.0 mph - N/A   Scattered Clouds
5:53 PM 86.0 °F 95.1 °F 75.0 °F 70% 30.09 in 10.0 mi ESE 12.7 mph - N/A   Clear
6:53 PM 84.0 °F 91.9 °F 75.0 °F 74% 30.09 in 10.0 mi ESE 13.8 mph - N/A   Clear
7:53 PM 82.9 °F 91.8 °F 77.0 °F 82% 30.12 in 10.0 mi ESE 11.5 mph - N/A   Scattered Clouds
8:53 PM 82.9 °F 90.2 °F 75.0 °F 77% 30.12 in 10.0 mi ESE 11.5 mph - N/A   Clear
9:53 PM 82.9 °F 90.8 °F 75.9 °F 79% 30.15 in 10.0 mi ESE 11.5 mph 19.6 mph N/A   Scattered Clouds
10:19 PM 75.2 °F - 73.4 °F 94% 30.17 in 2.5 mi South 16.1 mph 31.1 mph 0.16 in Rain , Thunderstorm Heavy Thunderstorms and Rain
10:28 PM 73.4 °F - 73.4 °F 100% 30.16 in 3.0 mi South 11.5 mph - 0.20 in Rain , Thunderstorm Light Thunderstorms and Rain
10:50 PM 75.2 °F - 75.2 °F 100% 30.16 in 9.0 mi SSE 4.6 mph - 0.20 in Rain Light Rain
10:53 PM 75.9 °F - 75.9 °F 100% 30.16 in 9.0 mi SSE 3.5 mph - 0.20 in   Scattered Clouds
11:53 PM 77.0 °F - 77.0 °F 100% 30.15 in 10.0 mi NW 3.5 mph - N/A   Mostly Cloudy